Terminal Aerodrome Forecast
Issued by NWS

Home | Current Version | Previous Version | Graphics & Text | Print | Product List | Glossary On
Versions: 1 2 3 4 5 6 7 8 9 10 11 12 13 14 15 16
000
FTUS43 KLSX 312300
TAFSUS
TAF
KSUS 312334Z 0100/0124 VRB03KT P6SM SCT250
     FM011000 00000KT 3SM BR SCT250
     FM011300 VRB03KT P6SM SCT250=

USA.gov is the U.S. government's official web portal to all federal, state and local government web resources and services.